Location: Newark
(50.4348°N, 30.5552°E)
Time: 10:37:38
(UTC+00:00)

Tiros 1 despin weight - Pass Details

Date: 31 January 2020
Orbit: 594 x 642 km, 48.2° (Epoch: 25 February)

Event Time Altitude Azimuth Distance (km) Brightness Sun altitude
Rises 06:18:28 0° 200° (SSW) 2,828 ? 5.1°
Reaches altitude 10° 06:21:30 10° 178° (S) 1,938 ? 5.5°
Maximum altitude 06:24:10 16° 141° (SE) 1,604 ? 5.8°
Drops below altitude 10° 06:26:52 10° 104° (ESE) 1,960 ? 6.1°
Sets 06:29:57 0° 82° (E) 2,879 ? 6.5°
